Location: Fort Collins
(40.5850°N, 105.0840°W)
Time: 23:07:52
(UTC-07:00)

Daily predictions for brighter satellites

Satellite Brightness Start Highest point End
(mag) Time Altitude Azimuth Time Altitude Azimuth Time Altitude Azimuth
NOSS 2-2 (C) 3.6 18:04:54 10° SW 18:08:54 78° NW 18:13:30 10° NNE
SL-8 R/B 4.0 18:05:25 10° WNW 18:10:13 71° SW 18:15:01 10° SE
DELTA 2 R/B (1) 3.7 18:06:05 10° W 18:11:42 82° S 18:17:19 10° E
ERBS 3.3 18:11:21 10° NW 18:14:44 50° SW 18:18:04 10° SSE
Cosmos 1992 Rocket 4.0 18:10:04 10° NNW 18:15:19 81° ENE 18:20:32 10° SSE
Cosmos 407 Rocket 3.9 18:12:58 10° S 18:17:53 43° ESE 18:22:53 10° NNE
Cosmos 1346 Rocket 3.3 18:14:33 10° NNW 18:18:27 64° W 18:22:17 10° S
ALOS 3.1 18:16:50 10° SE 18:20:50 29° ENE 18:24:50 10° N
deb Kosmos-1763 4.2 18:20:48 10° S 18:24:29 54° ESE 18:28:13 10° NNE
Meteor 1-25 Rocket 4.2 18:19:11 10° S 18:24:42 69° E 18:30:20 10° NNE
FENGYUN 3A 4.2 18:20:35 10° SE 18:25:25 35° ENE 18:30:17 10° N
COSMOS 2428 4.4 18:22:46 10° NNE 18:25:31 14° NE 18:27:55 11° ENE
H-2A R/B 4.2 18:23:22 10° ESE 18:25:49 17° ENE 18:28:16 10° NNE
Cosmos 1975 Rocket 3.4 18:22:02 10° NNW 18:26:20 70° W 18:30:36 10° S
SKYMED 2 4.1 18:22:47 10° N 18:27:05 62° WNW 18:31:21 10° SSW
Cosmos 1812 2.6 18:29:58 10° N 18:33:50 78° E 18:37:40 10° S
Cosmos 1238 Rocket 3.6 18:32:24 10° NNE 18:34:35 18° ENE 18:35:11 17° E
Meteor 1-11 Rocket 4.5 18:31:34 10° SSE 18:36:32 31° E 18:41:35 10° NNE
Helios 1B rocket 4.2 18:38:47 14° ESE 18:38:47 14° ESE 18:40:08 10° SE
Cosmos 1190 Rocket 3.9 18:37:18 10° SSW 18:42:29 87° ESE 18:47:41 10° NNE
Cosmos 1536 Rocket 3.6 18:40:47 10° N 18:45:11 56° E 18:49:34 10° SSE
Cosmos 1140 Rocket 4.1 18:41:21 10° SSE 18:45:50 32° E 18:50:21 10° NE
Cosmos 2219 4.4 18:47:22 10° SE 18:51:17 19° E 18:51:30 19° E
Spot 2 Rocket 3.7 18:48:26 10° SE 18:53:14 47° ENE 18:58:06 10° N
Tiangong 2 0.9 18:50:20 10° WNW 18:53:24 88° SSW 18:54:42 31° ESE
Resurs 01 Rocket 1.8 18:49:14 10° SE 18:53:27 46° ENE 18:57:39 10° N
Nadezhda 1 Rocket 4.4 18:47:59 10° NNW 18:54:00 66° W 18:59:59 10° S
METEOR-M 4.5 18:49:18 10° S 18:54:36 70° WSW 18:59:57 10° NNW
NOAA 12 4.5 18:49:23 10° S 18:54:40 68° WSW 18:59:59 10° NNW
Cosmos 2360 Rocket 2.5 18:50:58 10° N 18:56:21 43° ENE 19:00:37 16° SE
Cosmos 1602 3.9 18:54:10 10° SSE 18:57:53 47° E 19:01:38 10° NNE
GEOS 3 Rocket 3.6 18:54:04 10° NE 18:59:19 89° SE 19:04:37 10° SW
Cosmos 2219 Rocket 3.9 18:56:41 10° NNE 18:59:28 14° NE 18:59:34 14° NE
DNEPR-1 R/B 3.5 18:55:31 10° NW 18:59:45 79° WSW 19:04:00 10° SSE
HJ-1C 3.2 19:00:57 10° SSE 19:04:19 83° E 19:07:42 10° N
Cosmos 2181 Rocket 3.9 18:59:15 10° N 19:05:27 66° E 19:11:43 10° SSE
BREEZE-M DEB (TANK) 2.6 19:05:42 10° NW 19:08:09 45° NNE 19:09:29 32° E
CENTAUR R/B 4.4 19:01:29 10° NW 19:08:48 41° WSW 19:16:25 10° S
Envisat 4.3 19:10:22 22° NE 19:10:22 22° NE 19:13:29 10° NNE
SL-19 R/B 4.2 19:04:54 10° SSE 19:10:29 77° ENE 19:16:25 10° NNW
Cosmos 1954 Rocket 3.9 19:05:34 10° S 19:10:43 74° ESE 19:15:56 10° NNE
Cosmos 1633 2.4 19:08:09 10° S 19:11:48 80° E 19:15:30 10° N
SJ-6B 3.9 19:09:57 10° S 19:13:51 47° W 19:17:42 10° NNW
Cosmos 1833 4.1 19:10:06 10° SSW 19:15:47 74° ESE 19:21:27 10° NNE
Cosmos 1300 Rocket 3.4 19:13:05 10° S 19:17:27 80° E 19:21:54 10° N
Resurs 1-3 3.4 19:14:05 10° SSE 19:18:26 74° ENE 19:22:49 10° N
Cosmos 2333 Rocket 3.9 19:17:39 10° N 19:20:34 17° NE 19:20:34 17° NE
TSX-5 3.5 19:20:33 10° SW 19:23:43 65° WNW 19:24:36 41° N
Cosmos 2184 Rocket 4.1 19:19:21 10° SSE 19:25:23 49° E 19:31:23 10° NNE
FengYun 1-2 T 4.4 19:20:05 10° S 19:25:31 71° WSW 19:31:01 10° NNW
Cosmos 2074 Rocket 4.1 19:19:46 10° SSE 19:25:45 51° E 19:31:47 10° NNE
Cosmos 1709 Rocket 4.3 19:20:49 10° SSW 19:27:01 68° W 19:33:11 10° N
BREEZE-M DEB (TANK) 3.9 19:20:40 10° WNW 19:27:15 45° SW 19:28:34 28° S
SL-16 R/B 3.5 19:23:35 10° NW 19:28:50 40° WSW 19:34:04 10° S
Gbstr 26 Del rocket 3.4 19:27:09 10° SSW 19:29:59 39° S 19:29:59 39° S
Meteor 1-19 Rocket 4.2 19:26:31 10° N 19:32:12 86° W 19:37:57 10° S
Cosmos 1340 3.5 19:30:01 10° NNW 19:33:41 50° W 19:37:20 10° S
Cosmos 1536 3.1 19:34:15 10° S 19:43:47 - N 19:37:18 51° S
Cosmos 1461 4.3 19:34:50 10° NW 19:38:30 35° WSW 19:41:24 15° S
Cosmos 1818 4.4 19:35:57 10° SW 19:41:12 49° NW 19:46:10 12° NNE
Meteor 1-5 Rocket 4.3 19:36:46 10° S 19:42:37 59° E 19:48:26 10° NNE
BREEZE-M DEB (TANK) 3.7 19:39:43 10° SW 19:42:08 32° SW 19:42:08 32° SW
Okean 1 Rocket 3.4 19:42:04 10° SSW 19:46:30 65° W 19:50:58 10° N
Cosmos 2322 Rocket 4.2 19:42:38 10° NW 19:47:16 27° WSW 19:51:53 10° SSW
Helios 1A 2.9 19:48:25 80° WSW 19:48:25 80° WSW 19:52:36 10° NNW
CZ-2D R/B 3.7 19:48:12 54° SW 19:48:38 58° W 19:52:25 10° NNW
Cosmos 1741 Rocket 3.8 19:44:24 10° SSW 19:49:36 76° ESE 19:50:15 66° NE
Cosmos 2285 Rocket 4.2 19:44:36 10° N 19:50:43 49° ENE 19:50:43 49° ENE
DELTA 2 R/B (1) 3.7 19:52:32 10° W 19:58:03 60° SSW 19:58:28 59° S
ALOS 4.3 19:54:13 10° SSW 19:58:12 28° W 20:02:12 10° NW
Cosmos 2322 3.9 19:53:01 10° NNW 19:58:42 68° WSW 20:00:58 37° S
Meteor 1-23 Rocket 4.2 19:53:59 10° N 19:59:50 86° W 20:01:46 44° S
Okean 1-7 Rocket 4.0 19:57:33 10° NNW 20:02:01 61° W 20:02:21 59° WSW
Cosmos 1570 Rocket 3.9 19:57:05 10° NNW 20:02:11 85° NW 20:02:11 85° NW
Meteor 2-4 Rocket 4.2 20:04:34 10° NNW 20:10:01 56° W 20:13:14 23° SSW
COSMOS 2428 2.8 20:05:01 10° NNW 20:10:00 67° N 20:10:00 67° N
Cosmos 2237 4.2 20:05:40 10° NNW 20:11:25 80° WSW 20:11:31 80° SW
Helios 1B rocket 4.3 20:15:08 26° SW 20:15:08 26° SW 20:17:11 10° SW
Cosmos 2237 Rocket 4.0 20:17:43 10° N 20:19:50 21° N 20:19:50 21° N
Resurs 01 Rocket 4.5 20:27:32 10° SW 20:30:09 15° W 20:32:46 10° NW
Cosmos 2219 4.0 20:29:14 10° SW 20:33:37 48° WSW 20:33:37 48° WSW
Cosmos 2360 Rocket 4.1 20:35:29 10° NW 20:40:04 26° WSW 20:42:30 19° SW
Cosmos 2219 Rocket 3.7 20:38:41 10° NNW 20:41:19 29° NNW 20:41:19 29° NNW
USA 229 DEB 4.4 20:57:09 10° NW 21:02:29 52° WNW 21:02:29 52° WNW
USA 229 4.4 20:57:15 10° NW 21:02:34 52° WNW 21:02:34 52° WNW
Cosmos 2333 Rocket 4.1 21:00:31 10° NNW 21:02:36 23° NNW 21:02:36 23° NNW
